Previsão horária em Abolone

Hoje, 16 Maio, Domingo

Tempo Temperatura Precipitação Vento Pressão Humidade
00:00 +12°C° 0 mm 2 m/s 736 mmHg 97%
01:00 +12°C° 0 mm 2 m/s 736 mmHg 98%
02:00 +10°C° 0 mm 2 m/s 736 mmHg 98%
03:00 +10°C° 0.1 mm 2 m/s 736 mmHg 98%
04:00 +10°C° 0.1 mm 2 m/s 737 mmHg 98%
05:00 +12°C° 0.1 mm 2 m/s 737 mmHg 98%
06:00 +13°C° 0.1 mm 2 m/s 737 mmHg 94%
07:00 +14°C° 0.1 mm 2 m/s 738 mmHg 91%
08:00 +15°C° 0 mm 2 m/s 738 mmHg 87%
09:00 +16°C° 0.1 mm 2 m/s 738 mmHg 80%
10:00 +18°C° 0.1 mm 2 m/s 738 mmHg 73%
11:00 +19°C° 0.1 mm 2 m/s 739 mmHg 66%
12:00 +20°C° 0.2 mm 2 m/s 739 mmHg 63%
13:00 +20°C° 0.2 mm 2 m/s 739 mmHg 60%
14:00 +21°C° 0.2 mm 2 m/s 739 mmHg 57%
15:00 +20°C° 0.1 mm 2 m/s 739 mmHg 61%
16:00 +21°C° 0.1 mm 1 m/s 739 mmHg 64%
17:00 +20°C° 0.1 mm 1 m/s 739 mmHg 68%
18:00 +19°C° 0 mm 1 m/s 739 mmHg 74%
19:00 +16°C° 0 mm 1 m/s 739 mmHg 80%
20:00 +15°C° 0 mm 2 m/s 739 mmHg 86%
21:00 +14°C° 0 mm 2 m/s 739 mmHg 89%
22:00 +14°C° 0 mm 1 m/s 739 mmHg 92%
23:00 +13°C° 0 mm 1 m/s 739 mmHg 94%

Amanhã, 17 Maio, Segunda-feira

Tempo Temperatura Precipitação Vento Pressão Humidade
00:00 +13°C° 0 mm 2 m/s 739 mmHg 95%
01:00 +13°C° 0 mm 2 m/s 739 mmHg 95%
02:00 +12°C° 0 mm 2 m/s 739 mmHg 96%
03:00 +13°C° 0 mm 2 m/s 739 mmHg 95%
04:00 +13°C° 0 mm 2 m/s 739 mmHg 94%
05:00 +13°C° 0 mm 2 m/s 739 mmHg 93%
06:00 +15°C° 0 mm 2 m/s 739 mmHg 85%
07:00 +17°C° 0 mm 3 m/s 739 mmHg 77%
08:00 +18°C° 0 mm 3 m/s 739 mmHg 69%
09:00 +20°C° 0 mm 3 m/s 739 mmHg 65%
10:00 +21°C° 0 mm 3 m/s 738 mmHg 62%
11:00 +22°C° 0 mm 3 m/s 738 mmHg 58%
12:00 +23°C° 0 mm 4 m/s 737 mmHg 57%
13:00 +25°C° 0 mm 4 m/s 737 mmHg 55%
14:00 +26°C° 0 mm 5 m/s 736 mmHg 54%
15:00 +26°C° 0 mm 5 m/s 736 mmHg 57%
16:00 +25°C° 0 mm 5 m/s 735 mmHg 60%
17:00 +25°C° 0 mm 5 m/s 735 mmHg 63%
18:00 +23°C° 0 mm 5 m/s 734 mmHg 66%
19:00 +22°C° 0 mm 5 m/s 734 mmHg 68%
20:00 +21°C° 0 mm 5 m/s 734 mmHg 71%
21:00 +20°C° 0 mm 5 m/s 734 mmHg 73%
22:00 +20°C° 0 mm 5 m/s 733 mmHg 76%
23:00 +19°C° 0 mm 5 m/s 733 mmHg 78%

Depois de amanhã, 18 Maio, Terça-feira

Tempo Temperatura Precipitação Vento Pressão Humidade
00:00 +18°C° 0 mm 4 m/s 733 mmHg 80%
01:00 +18°C° 0 mm 4 m/s 733 mmHg 82%
02:00 +17°C° 0 mm 4 m/s 733 mmHg 85%
03:00 +17°C° 0 mm 4 m/s 732 mmHg 87%
04:00 +16°C° 0 mm 5 m/s 732 mmHg 88%
05:00 +16°C° 0 mm 5 m/s 732 mmHg 90%
06:00 +17°C° 0.1 mm 5 m/s 732 mmHg 88%
07:00 +17°C° 0.1 mm 5 m/s 732 mmHg 86%
08:00 +19°C° 0.1 mm 5 m/s 733 mmHg 84%
09:00 +19°C° 0 mm 5 m/s 733 mmHg 79%
10:00 +20°C° 0 mm 5 m/s 733 mmHg 75%
11:00 +21°C° 0 mm 5 m/s 734 mmHg 70%
12:00 +21°C° 0 mm 5 m/s 734 mmHg 66%
13:00 +22°C° 0 mm 4 m/s 734 mmHg 61%
14:00 +22°C° 0 mm 4 m/s 734 mmHg 57%
15:00 +22°C° 0 mm 3 m/s 734 mmHg 61%
16:00 +22°C° 0 mm 3 m/s 734 mmHg 65%
17:00 +21°C° 0 mm 2 m/s 734 mmHg 69%
18:00 +20°C° 0.7 mm 2 m/s 734 mmHg 75%
19:00 +18°C° 0.7 mm 3 m/s 734 mmHg 82%
20:00 +17°C° 0.7 mm 4 m/s 734 mmHg 88%
21:00 +16°C° 0.1 mm 3 m/s 734 mmHg 90%
22:00 +16°C° 0.1 mm 2 m/s 734 mmHg 92%
23:00 +15°C° 0.1 mm 1 m/s 733 mmHg 94%

19 Maio, Quarta-feira

Tempo Temperatura Precipitação Vento Pressão Humidade
00:00 +15°C° 0 mm 1 m/s 733 mmHg 94%
01:00 +15°C° 0 mm 2 m/s 733 mmHg 94%
02:00 +15°C° 0 mm 2 m/s 733 mmHg 95%
03:00 +15°C° 0.1 mm 2 m/s 733 mmHg 95%
04:00 +15°C° 0.1 mm 2 m/s 733 mmHg 96%
05:00 +15°C° 0.1 mm 2 m/s 732 mmHg 97%
06:00 +19°C° 0.2 mm 3 m/s 732 mmHg 75%
07:00 +18°C° 0.2 mm 3 m/s 732 mmHg 83%
08:00 +17°C° 0.2 mm 2 m/s 731 mmHg 92%
09:00 +19°C° 0.2 mm 3 m/s 733 mmHg 78%
10:00 +20°C° 0.2 mm 4 m/s 733 mmHg 72%
11:00 +20°C° 0.2 mm 4 m/s 733 mmHg 67%
12:00 +20°C° 0.2 mm 6 m/s 731 mmHg 77%
13:00 +20°C° 0.2 mm 5 m/s 731 mmHg 71%
14:00 +21°C° 0.2 mm 5 m/s 731 mmHg 65%
15:00 +18°C° 0.3 mm 3 m/s 732 mmHg 87%
16:00 +18°C° 0.3 mm 3 m/s 732 mmHg 83%
17:00 +19°C° 0.3 mm 3 m/s 733 mmHg 79%
18:00 +17°C° 0.1 mm 3 m/s 733 mmHg 83%
19:00 +16°C° 0.1 mm 2 m/s 733 mmHg 87%
20:00 +15°C° 0.1 mm 1 m/s 733 mmHg 91%
21:00 +14°C° 0 mm 1 m/s 733 mmHg 91%
22:00 +14°C° 0 mm 1 m/s 733 mmHg 91%
23:00 +14°C° 0 mm 1 m/s 733 mmHg 91%

20 Maio, Quinta-feira

Tempo Temperatura Precipitação Vento Pressão Humidade
00:00 +14°C° 0.6 mm 1 m/s 733 mmHg 93%
01:00 +14°C° 0.6 mm 1 m/s 732 mmHg 95%
02:00 +13°C° 0.6 mm 1 m/s 732 mmHg 96%
03:00 +13°C° 0.4 mm 1 m/s 732 mmHg 96%
04:00 +13°C° 0.4 mm 1 m/s 732 mmHg 97%
05:00 +13°C° 0.4 mm 1 m/s 732 mmHg 97%
06:00 +14°C° 0.4 mm 1 m/s 732 mmHg 95%
07:00 +14°C° 0.4 mm 2 m/s 732 mmHg 93%
08:00 +14°C° 0.4 mm 2 m/s 732 mmHg 92%
09:00 +14°C° 0.5 mm 2 m/s 732 mmHg 90%
10:00 +13°C° 0.5 mm 3 m/s 733 mmHg 88%
11:00 +14°C° 0.5 mm 3 m/s 733 mmHg 87%
12:00 +13°C° 0.2 mm 4 m/s 733 mmHg 88%
13:00 +13°C° 0.2 mm 4 m/s 734 mmHg 90%
14:00 +12°C° 0.2 mm 4 m/s 734 mmHg 91%
15:00 +12°C° 0.1 mm 4 m/s 735 mmHg 92%
16:00 +11°C° 0.1 mm 4 m/s 735 mmHg 93%
17:00 +11°C° 0.1 mm 4 m/s 736 mmHg 93%
18:00 +10°C° 0 mm 3 m/s 736 mmHg 94%
19:00 +10°C° 0 mm 3 m/s 737 mmHg 94%
20:00 +9°C° 0 mm 3 m/s 737 mmHg 95%
21:00 +9°C° 0 mm 3 m/s 738 mmHg 96%
22:00 +9°C° 0 mm 2 m/s 738 mmHg 96%
23:00 +8°C° 0 mm 2 m/s 738 mmHg 97%

21 Maio, Sexta-feira

Tempo Temperatura Precipitação Vento Pressão Humidade
00:00 +8°C° 0 mm 2 m/s 739 mmHg 97%
01:00 +9°C° 0 mm 1 m/s 739 mmHg 97%
02:00 +9°C° 0 mm 1 m/s 739 mmHg 97%
03:00 +9°C° 0 mm 1 m/s 739 mmHg 95%
04:00 +10°C° 0 mm 1 m/s 739 mmHg 94%
05:00 +10°C° 0 mm 1 m/s 739 mmHg 93%
06:00 +10°C° 0.2 mm 2 m/s 739 mmHg 92%
07:00 +10°C° 0.2 mm 2 m/s 739 mmHg 91%
08:00 +11°C° 0.2 mm 3 m/s 739 mmHg 90%
09:00 +11°C° 1.4 mm 3 m/s 738 mmHg 92%
10:00 +11°C° 1.4 mm 4 m/s 738 mmHg 94%
11:00 +11°C° 1.4 mm 4 m/s 737 mmHg 96%
12:00 +10°C° 1.3 mm 5 m/s 737 mmHg 96%
13:00 +10°C° 1.3 mm 5 m/s 737 mmHg 96%
14:00 +10°C° 1.3 mm 5 m/s 736 mmHg 95%
15:00 +10°C° 1.3 mm 5 m/s 736 mmHg 96%
16:00 +11°C° 1.3 mm 4 m/s 736 mmHg 96%
17:00 +11°C° 1.3 mm 3 m/s 736 mmHg 97%
18:00 +10°C° 0.3 mm 4 m/s 736 mmHg 97%
19:00 +10°C° 0.3 mm 4 m/s 736 mmHg 96%
20:00 +10°C° 0.3 mm 4 m/s 736 mmHg 96%
21:00 +8°C° 0 mm 4 m/s 737 mmHg 96%
22:00 +7°C° 0 mm 4 m/s 738 mmHg 96%
23:00 +6°C° 0 mm 4 m/s 739 mmHg 96%
Mostrar mais

Necessitamos do seu Consentimento

A Meteoprog e os seus Fornecedores de Serviços podem armazenar e aceder a dados pessoais como cookies, identificadores do dispositivo ou outras tecnologias semelhantes existentes no seu dispositivo e processar estes dados para personalizar conteúdos e anúncios, assim como funcionalidades nas redes sociais e análise de tráfego.

  • Armazenar e/ou aceder a informações no seu dispositivo

    Os cookies, identificadores do dispositivo ou outras informações podem ser armazenados ou acedidos no seu dispositivo, para os fins acima indicados.

  • Anúncios e conteúdos personalizados, medição de anúncios e conteúdos, dados sobre o público-alvo e desenvolvimento de produtos

    Os anúncios e os conteúdos podem ser personalizados com base num perfil. Podem ser adicionados dados adicionais para uma maior personalização dos anúncios e dos conteúdos. A eficácia dos anúncios e dos conteúdos pode ser medida. Podem ser obtidas informações sobre o público que visualizou os anúncios e os conteúdos. Estes dados podem ser usados para desenvolver ou melhorar sistemas, softwares ou a experiência do utilizador.

Ao clicar em "Eu concordo”, permitirá o uso de cookies, identificadores do dispositivo e web beacons mencionados ou outras tecnologias semelhantes. As configurações do navegador do seu dispositivo podem ser alteradas.

Para certos fins, podem ser invocados interesses legítimos ao invés de consentimento. Pode ler mais informação sobre este assunto na nossa Política de Privacidade e Cookies.